Flag for United Kingdom Weather past 2 weeks in Slough, England, United Kingdom

Now
59 °F

Overcast.


Feels Like: 57 °F
Forecast: 50 / 59 °F
Wind: 10 mph from West

Location: London City Airport

Current Time: Oct 25, 2014 at 2:09:43 PM

Latest Report: Oct 25, 2014 at 1:20 PM


Visibility: N/A

Pressure: 30.09 "Hg

Humidity: 55%

Dew point: 43 °F

Location of SloughLocation

Historic Weather in Slough — Graph

°F

Slough temperature yesterday

Maximum temperature yesterday: 64 °F (at 1:50 PM)
Minimum temperature yesterday: 57 °F (at 11:50 PM)
Average temperature yesterday: 61 °F

Past Weeks' High & Low Weather Summary

 TemperatureHumidityPressure
High68 °F (Oct 17, 12:50 PM)100% (Oct 12, 6:50 AM)30.27 "Hg (Oct 12, 6:50 AM)
Low46 °F (Oct 12, 6:50 AM)48% (Oct 21, 3:50 PM)29.39 "Hg (Oct 13, 1:20 PM)
Average58 °F80%29.84 "Hg
* Reported Oct 10 12:50 PM — Oct 25 12:50 PM, Slough, Weather by CustomWeather, © 2014

Note: Actual official high and low records may vary slightly from our data, if they occured in-between our weather recording intervals... More about our weather records

Advertising

Slough weather history for previous 24 hours

 ConditionsComfort  
Time TempWeatherWind HumidityBarometerVisibility
12:50 PM
Oct 25
59 °FOvercast.14 mph55%30.09 "HgN/A
12:20 PM59 °FScattered clouds.13 mph51%30.09 "HgN/A
11:50 AM57 °FPartly sunny.12 mph59%30.09 "HgN/A
11:20 AM57 °FPartly sunny.8 mph63%30.09 "HgN/A
10:50 AM55 °FPartly sunny.9 mph67%30.09 "HgN/A
10:20 AM54 °FOvercast.8 mph77%30.07 "HgN/A
9:50 AM54 °FOvercast.8 mph77%30.07 "HgN/A
9:20 AM54 °FOvercast.8 mph77%30.07 "HgN/A
8:50 AM52 °FPartly sunny.7 mph82%30.07 "HgN/A
8:20 AM52 °FPassing clouds.8 mph82%30.07 "HgN/A
7:50 AM52 °FOvercast.7 mph82%30.04 "HgN/A
7:20 AM50 °FPassing clouds.6 mph88%30.04 "HgN/A
6:50 AM50 °FPassing clouds.6 mph88%30.04 "HgN/A
6:20 AM50 °FClear.7 mph82%30.04 "Hg10 mi
5:50 AM48 °FCool.7 mph94%30.04 "HgN/A
5:20 AM50 °FCool.6 mph88%30.01 "HgN/A
4:50 AM50 °FCool.7 mph88%30.01 "HgN/A
4:20 AM50 °FCool.7 mph88%30.01 "HgN/A
3:50 AM52 °FCool.7 mph88%30.01 "HgN/A
3:20 AM52 °FCool.7 mph88%30.01 "HgN/A
2:50 AM52 °FCool.9 mph88%30.01 "HgN/A
2:20 AM54 °FPassing clouds.9 mph88%30.01 "HgN/A
1:50 AM54 °FPassing clouds.9 mph88%30.01 "HgN/A
1:20 AM54 °FPassing clouds.8 mph88%30.01 "HgN/A
12:50 AM54 °FCool.5 mph82%30.01 "HgN/A
12:20 AM57 °FPassing clouds.7 mph72%29.98 "HgN/A
11:50 PM
Oct 24
57 °FPassing clouds.9 mph72%29.98 "HgN/A
11:20 PM59 °FPassing clouds.7 mph68%29.98 "HgN/A
10:50 PM59 °FPassing clouds.9 mph68%29.98 "HgN/A
10:20 PM59 °FSprinkles. Passing clouds.10 mph72%29.98 "HgN/A
9:50 PM61 °FPartly cloudy.10 mph83%29.95 "HgN/A
9:20 PM61 °FPassing clouds.13 mph83%29.95 "HgN/A
8:50 PM61 °FPassing clouds.14 mph83%29.95 "HgN/A
8:20 PM63 °FPartly cloudy.10 mph77%29.92 "HgN/A
7:50 PM63 °FPassing clouds.8 mph83%29.92 "HgN/A
7:20 PM63 °FPassing clouds.8 mph83%29.92 "HgN/A
6:50 PM63 °FPassing clouds.8 mph83%29.92 "HgN/A
6:20 PM63 °FPartly sunny.7 mph83%29.89 "HgN/A
5:50 PM63 °FScattered clouds.7 mph83%29.89 "HgN/A
5:20 PM63 °FPassing clouds.7 mph83%29.89 "HgN/A
4:50 PM63 °FPassing clouds.8 mph83%29.89 "HgN/A
4:20 PM63 °FScattered clouds.7 mph77%29.89 "HgN/A
3:50 PM64 °FPartly sunny.7 mph78%29.92 "HgN/A
3:20 PM63 °FSprinkles. Broken clouds.7 mph77%29.92 "HgN/A
2:50 PM64 °FPartly sunny.7 mph73%29.92 "HgN/A
2:20 PM63 °FPartly sunny.7 mph77%29.92 "HgN/A
Weather by CustomWeather, © 2014

See weather overviewHow to use our weather pages